TimeEDT,TemperatureF,Dew PointF,Humidity,Sea Level PressureIn,VisibilityMPH,Wind Direction,Wind SpeedMPH,Gust SpeedMPH,PrecipitationIn,Events,Conditions,WindDirDegrees,DateUTC
12:15 AM,73.4,73.4,100,30.10,10.0,East,5.8,-,N/A,,Clear,80,2013-07-18 04:15:00
12:35 AM,73.4,73.4,100,30.11,10.0,NE,6.9,-,N/A,,Clear,50,2013-07-18 04:35:00
12:55 AM,73.4,71.6,94,30.11,10.0,East,5.8,-,N/A,,Clear,80,2013-07-18 04:55:00
1:15 AM,73.4,73.4,100,30.11,10.0,East,5.8,-,N/A,,Clear,80,2013-07-18 05:15:00
1:35 AM,73.4,73.4,100,30.10,10.0,ENE,5.8,-,N/A,,Clear,70,2013-07-18 05:35:00
1:55 AM,73.4,71.6,94,30.09,10.0,ENE,6.9,-,N/A,,Clear,60,2013-07-18 05:55:00
2:15 AM,73.4,71.6,94,30.09,10.0,ENE,8.1,-,N/A,,Clear,60,2013-07-18 06:15:00
2:35 AM,73.4,71.6,94,30.09,10.0,ENE,6.9,-,N/A,,Clear,60,2013-07-18 06:35:00
2:55 AM,73.4,71.6,94,30.09,10.0,ENE,6.9,-,N/A,,Clear,70,2013-07-18 06:55:00
3:15 AM,71.6,71.6,100,30.09,10.0,ENE,6.9,-,N/A,,Clear,70,2013-07-18 07:15:00
3:35 AM,71.6,71.6,100,30.08,10.0,ENE,9.2,-,N/A,,Clear,60,2013-07-18 07:35:00
3:55 AM,71.6,71.6,100,30.08,10.0,ENE,6.9,-,N/A,,Clear,60,2013-07-18 07:55:00
4:15 AM,71.6,71.6,100,30.08,10.0,ENE,6.9,-,N/A,,Scattered Clouds,60,2013-07-18 08:15:00
4:35 AM,71.6,71.6,100,30.08,10.0,ENE,8.1,-,N/A,,Partly Cloudy,70,2013-07-18 08:35:00
4:55 AM,71.6,71.6,100,30.08,10.0,ENE,6.9,-,N/A,,Clear,70,2013-07-18 08:55:00
5:15 AM,71.6,71.6,100,30.08,10.0,ENE,5.8,-,N/A,,Clear,60,2013-07-18 09:15:00
5:35 AM,71.6,71.6,100,30.08,10.0,ENE,8.1,-,N/A,,Clear,70,2013-07-18 09:35:00
5:55 AM,73.4,71.6,94,30.08,10.0,East,6.9,-,N/A,,Partly Cloudy,90,2013-07-18 09:55:00
6:15 AM,73.4,71.6,94,30.08,10.0,East,6.9,-,N/A,,Clear,90,2013-07-18 10:15:00
6:35 AM,73.4,71.6,94,30.09,10.0,ENE,6.9,-,N/A,,Clear,60,2013-07-18 10:35:00
6:55 AM,73.4,71.6,94,30.09,10.0,ENE,8.1,-,N/A,,Clear,70,2013-07-18 10:55:00
7:15 AM,73.4,71.6,94,30.09,10.0,East,4.6,-,N/A,,Clear,80,2013-07-18 11:15:00
7:35 AM,73.4,71.6,94,30.10,10.0,NE,6.9,-,N/A,,Clear,50,2013-07-18 11:35:00
7:55 AM,73.4,71.6,94,30.11,10.0,East,8.1,-,N/A,,Clear,90,2013-07-18 11:55:00
8:15 AM,73.4,73.4,100,30.11,10.0,East,6.9,-,N/A,,Partly Cloudy,100,2013-07-18 12:15:00
8:35 AM,73.4,73.4,100,30.12,10.0,East,6.9,-,N/A,Thunderstorm,Clear,90,2013-07-18 12:35:00
8:55 AM,73.4,73.4,100,30.12,10.0,East,6.9,-,N/A,Thunderstorm,Clear,90,2013-07-18 12:55:00
9:15 AM,75.2,73.4,94,30.11,10.0,ENE,8.1,-,N/A,Thunderstorm,Clear,70,2013-07-18 13:15:00
9:35 AM,75.2,73.4,94,30.11,10.0,East,9.2,-,N/A,,Clear,90,2013-07-18 13:35:00
9:55 AM,77.0,73.4,89,30.12,10.0,East,8.1,-,N/A,,Clear,80,2013-07-18 13:55:00
10:15 AM,77.0,73.4,89,30.12,10.0,East,10.4,-,N/A,,Clear,80,2013-07-18 14:15:00
10:35 AM,78.8,73.4,83,30.12,10.0,East,8.1,-,N/A,,Clear,100,2013-07-18 14:35:00
10:55 AM,80.6,75.2,84,30.12,10.0,ESE,10.4,-,N/A,,Partly Cloudy,110,2013-07-18 14:55:00
11:15 AM,80.6,73.4,79,30.12,10.0,ESE,8.1,-,N/A,,Scattered Clouds,110,2013-07-18 15:15:00
11:35 AM,80.6,73.4,79,30.12,10.0,SE,8.1,-,N/A,Thunderstorm,Scattered Clouds,130,2013-07-18 15:35:00
11:55 AM,82.4,73.4,74,30.12,10.0,East,5.8,-,N/A,,Mostly Cloudy,100,2013-07-18 15:55:00
12:15 PM,82.4,73.4,74,30.12,10.0,ESE,8.1,-,N/A,Thunderstorm,Mostly Cloudy,120,2013-07-18 16:15:00
12:35 PM,82.4,73.4,74,30.13,10.0,ESE,8.1,-,N/A,,Scattered Clouds,120,2013-07-18 16:35:00
12:55 PM,82.4,73.4,74,30.12,10.0,SE,6.9,-,N/A,,Scattered Clouds,130,2013-07-18 16:55:00
1:15 PM,82.4,73.4,74,30.11,10.0,SE,9.2,-,N/A,Thunderstorm,Partly Cloudy,130,2013-07-18 17:15:00
1:35 PM,82.4,71.6,70,30.10,10.0,SE,11.5,-,N/A,Thunderstorm,Clear,130,2013-07-18 17:35:00
1:55 PM,80.6,73.4,79,30.10,10.0,SSE,9.2,-,N/A,,Clear,150,2013-07-18 17:55:00
2:15 PM,80.6,73.4,79,30.10,10.0,SE,5.8,-,N/A,,Clear,140,2013-07-18 18:15:00
2:35 PM,80.6,73.4,79,30.10,10.0,SE,8.1,-,N/A,,Clear,130,2013-07-18 18:35:00
2:55 PM,80.6,73.4,79,30.09,10.0,SE,8.1,-,N/A,Rain,Light Rain,130,2013-07-18 18:55:00
3:15 PM,78.8,75.2,89,30.09,10.0,South,11.5,-,N/A,Rain-Thunderstorm,Light Rain,180,2013-07-18 19:15:00
3:35 PM,77.0,75.2,94,30.08,10.0,SSE,10.4,-,N/A,Rain-Thunderstorm,Light Rain,160,2013-07-18 19:35:00
3:55 PM,77.0,75.2,94,30.08,10.0,South,10.4,-,N/A,Rain,Light Rain,170,2013-07-18 19:55:00
4:15 PM,77.0,75.2,94,30.08,7.0,South,11.5,-,N/A,Rain,Light Rain,170,2013-07-18 20:15:00
4:35 PM,77.0,73.4,89,30.08,9.0,SSE,13.8,-,0.01,Rain,Light Rain,150,2013-07-18 20:35:00
4:55 PM,77.0,73.4,89,30.08,10.0,SSE,11.5,-,0.01,,Mostly Cloudy,160,2013-07-18 20:55:00
5:15 PM,77.0,73.4,89,30.08,10.0,SSE,9.2,-,N/A,,Mostly Cloudy,160,2013-07-18 21:15:00
6:15 PM,77.0,71.6,83,30.06,10.0,SSE,6.9,-,N/A,,Clear,160,2013-07-18 22:15:00
6:35 PM,77.0,71.6,83,30.06,10.0,SSE,6.9,-,N/A,,Clear,160,2013-07-18 22:35:00
6:55 PM,77.0,71.6,83,30.06,10.0,SE,3.5,-,N/A,,Clear,130,2013-07-18 22:55:00
7:15 PM,77.0,73.4,89,30.06,10.0,East,3.5,-,N/A,,Clear,100,2013-07-18 23:15:00
7:35 PM,77.0,73.4,89,30.06,10.0,ESE,3.5,-,N/A,,Clear,120,2013-07-18 23:35:00
7:55 PM,77.0,73.4,89,30.07,10.0,ESE,4.6,-,N/A,,Clear,110,2013-07-18 23:55:00
8:15 PM,75.2,73.4,94,30.07,10.0,ESE,5.8,-,N/A,,Clear,110,2013-07-19 00:15:00
8:35 PM,75.2,73.4,94,30.08,10.0,ESE,4.6,-,N/A,Rain,Light Rain,110,2013-07-19 00:35:00
8:55 PM,75.2,73.4,94,30.09,10.0,East,6.9,-,N/A,,Partly Cloudy,100,2013-07-19 00:55:00
9:15 PM,75.2,73.4,94,30.09,10.0,ESE,6.9,-,N/A,,Scattered Clouds,110,2013-07-19 01:15:00
9:35 PM,75.2,73.4,94,30.10,10.0,ESE,5.8,-,N/A,,Partly Cloudy,120,2013-07-19 01:35:00
9:55 PM,75.2,73.4,94,30.10,10.0,SE,6.9,-,N/A,,Clear,130,2013-07-19 01:55:00
10:15 PM,75.2,71.6,89,30.10,10.0,ESE,8.1,-,N/A,,Clear,120,2013-07-19 02:15:00
10:35 PM,75.2,73.4,94,30.10,10.0,ESE,6.9,-,N/A,,Clear,110,2013-07-19 02:35:00
10:55 PM,75.2,73.4,94,30.10,10.0,East,6.9,-,N/A,,Clear,100,2013-07-19 02:55:00
11:15 PM,73.4,73.4,100,30.10,10.0,East,4.6,-,N/A,,Clear,90,2013-07-19 03:15:00
11:35 PM,73.4,73.4,100,30.11,10.0,ESE,5.8,-,N/A,,Clear,110,2013-07-19 03:35:00
11:55 PM,73.4,71.6,94,30.12,10.0,ESE,5.8,-,N/A,,Clear,120,2013-07-19 03:55:00